Time,TemperatureF,DewpointF,PressureIn,WindDirection,WindDirectionDegrees,WindSpeedMPH,WindSpeedGustMPH,Humidity,HourlyPrecipIn,Conditions,Clouds,dailyrainin,SoftwareType,DateUTC
2013-03-21 00:00:00,18.3,12.6,30.01,WNW,297,1.0,7.0,78,0.00,,---,0.00,VWS V14.00,2013-03-21 04:00:00,
2013-03-21 00:01:00,18.3,12.6,30.01,WNW,297,1.0,2.0,78,0.00,,---,0.00,VWS V14.00,2013-03-21 04:01:00,
2013-03-21 00:02:00,18.3,12.9,30.01,WNW,297,1.0,2.0,79,0.00,,---,0.00,VWS V14.00,2013-03-21 04:02:00,
2013-03-21 00:03:00,18.2,12.5,30.01,WNW,297,1.0,2.0,78,0.00,,---,0.00,VWS V14.00,2013-03-21 04:03:00,
2013-03-21 00:08:00,18.1,12.7,30.01,WNW,297,2.0,4.0,79,0.00,,---,0.00,VWS V14.00,2013-03-21 04:08:00,
2013-03-21 00:13:00,18.1,12.7,30.00,WSW,250,1.0,4.0,79,0.00,,---,0.00,VWS V14.00,2013-03-21 04:13:00,
2013-03-21 00:19:00,18.0,12.6,30.00,West,271,4.0,4.0,79,0.00,,---,0.00,VWS V14.00,2013-03-21 04:19:00,
2013-03-21 00:24:00,17.9,12.5,30.00,WNW,284,0.0,4.0,79,0.00,,---,0.00,VWS V14.00,2013-03-21 04:24:00,
2013-03-21 00:29:00,17.9,12.8,30.01,WNW,284,0.0,4.0,80,0.00,,---,0.00,VWS V14.00,2013-03-21 04:29:00,
2013-03-21 00:30:00,17.9,12.8,30.01,WNW,284,0.0,4.0,80,0.00,,---,0.00,VWS V14.00,2013-03-21 04:30:00,
2013-03-21 00:34:00,17.8,12.7,30.00,WNW,284,2.0,4.0,80,0.00,,---,0.00,VWS V14.00,2013-03-21 04:34:00,
2013-03-21 00:39:00,17.7,12.6,30.00,WNW,284,0.0,4.0,80,0.00,,---,0.00,VWS V14.00,2013-03-21 04:39:00,
2013-03-21 00:44:00,17.7,12.6,30.00,WNW,283,1.0,4.0,80,0.00,,---,0.00,VWS V14.00,2013-03-21 04:44:00,
2013-03-21 00:49:00,17.6,12.5,30.00,WNW,284,1.0,4.0,80,0.00,,---,0.00,VWS V14.00,2013-03-21 04:49:00,
2013-03-21 00:55:00,17.5,12.4,30.00,WNW,284,0.0,4.0,80,0.00,,---,0.00,VWS V14.00,2013-03-21 04:55:00,
2013-03-21 01:00:00,17.5,12.7,30.00,WNW,284,0.0,4.0,81,0.00,,---,0.00,VWS V14.00,2013-03-21 05:00:00,
2013-03-21 01:05:00,17.5,12.7,30.00,WSW,255,0.0,4.0,81,0.00,,---,0.00,VWS V14.00,2013-03-21 05:05:00,
2013-03-21 01:10:00,17.5,12.7,30.00,WSW,256,0.0,4.0,81,0.00,,---,0.00,VWS V14.00,2013-03-21 05:10:00,
2013-03-21 01:15:00,17.3,12.5,29.99,WSW,255,0.0,4.0,81,0.00,,---,0.00,VWS V14.00,2013-03-21 05:15:00,
2013-03-21 01:21:00,17.3,12.8,29.99,WSW,257,0.0,4.0,82,0.00,,---,0.00,VWS V14.00,2013-03-21 05:21:00,
2013-03-21 01:26:00,17.2,12.7,29.99,WSW,257,1.0,4.0,82,0.00,,---,0.00,VWS V14.00,2013-03-21 05:26:00,
2013-03-21 01:30:00,17.1,12.6,29.99,WSW,257,3.0,4.0,82,0.00,,---,0.00,VWS V14.00,2013-03-21 05:30:00,
2013-03-21 01:32:00,17.2,12.7,29.99,WSW,257,0.0,3.0,82,0.00,,---,0.00,VWS V14.00,2013-03-21 05:32:00,
2013-03-21 01:37:00,17.1,12.6,29.99,WSW,257,2.0,3.0,82,0.00,,---,0.00,VWS V14.00,2013-03-21 05:37:00,
2013-03-21 01:42:00,17.0,12.5,29.99,West,259,0.0,5.0,82,0.00,,---,0.00,VWS V14.00,2013-03-21 05:42:00,
2013-03-21 01:48:00,17.0,12.7,29.99,WSW,253,1.0,5.0,83,0.00,,---,0.00,VWS V14.00,2013-03-21 05:48:00,
2013-03-21 01:53:00,16.9,12.6,30.00,WSW,253,0.0,5.0,83,0.00,,---,0.00,VWS V14.00,2013-03-21 05:53:00,
2013-03-21 01:58:00,16.9,12.6,30.00,WSW,253,0.0,5.0,83,0.00,,---,0.00,VWS V14.00,2013-03-21 05:58:00,
2013-03-21 02:00:00,16.9,12.6,29.99,WSW,253,1.0,5.0,83,0.00,,---,0.00,VWS V14.00,2013-03-21 06:00:00,
2013-03-21 02:03:00,17.0,13.0,29.99,WSW,254,3.0,3.0,84,0.00,,---,0.00,VWS V14.00,2013-03-21 06:03:00,
2013-03-21 02:09:00,17.0,13.0,29.99,WSW,250,2.0,4.0,84,0.00,,---,0.00,VWS V14.00,2013-03-21 06:09:00,
2013-03-21 02:14:00,17.0,13.0,29.99,WSW,252,1.0,4.0,84,0.00,,---,0.00,VWS V14.00,2013-03-21 06:14:00,
2013-03-21 02:19:00,17.1,13.1,29.99,West,263,1.0,6.0,84,0.00,,---,0.00,VWS V14.00,2013-03-21 06:19:00,
2013-03-21 02:24:00,17.2,13.2,29.99,West,265,0.0,6.0,84,0.00,,---,0.00,VWS V14.00,2013-03-21 06:24:00,
2013-03-21 02:30:00,17.3,13.6,29.99,West,264,3.0,6.0,85,0.00,,---,0.00,VWS V14.00,2013-03-21 06:30:00,
2013-03-21 02:35:00,17.5,13.8,29.99,WNW,287,1.0,5.0,85,0.00,,---,0.00,VWS V14.00,2013-03-21 06:35:00,
2013-03-21 02:40:00,17.6,13.9,29.99,WNW,288,0.0,5.0,85,0.00,,---,0.00,VWS V14.00,2013-03-21 06:40:00,
2013-03-21 02:45:00,17.7,14.0,29.99,WNW,288,0.0,5.0,85,0.00,,---,0.00,VWS V14.00,2013-03-21 06:45:00,
2013-03-21 02:51:00,17.8,14.1,29.99,WSW,257,2.0,5.0,85,0.00,,---,0.00,VWS V14.00,2013-03-21 06:51:00,
2013-03-21 02:56:00,17.9,14.2,29.99,WSW,247,0.0,5.0,85,0.00,,---,0.00,VWS V14.00,2013-03-21 06:56:00,
2013-03-21 03:00:00,18.0,14.3,29.99,WSW,247,1.0,5.0,85,0.00,,---,0.00,VWS V14.00,2013-03-21 07:00:00,
2013-03-21 03:02:00,18.0,14.3,29.98,WSW,246,4.0,4.0,85,0.00,,---,0.00,VWS V14.00,2013-03-21 07:02:00,
2013-03-21 03:07:00,18.0,14.0,29.98,WSW,255,2.0,5.0,84,0.00,,---,0.00,VWS V14.00,2013-03-21 07:07:00,
2013-03-21 03:13:00,18.0,14.0,29.98,WSW,256,2.0,6.0,84,0.00,,---,0.00,VWS V14.00,2013-03-21 07:13:00,
2013-03-21 03:18:00,17.9,13.9,29.98,WSW,255,0.0,4.0,84,0.00,,---,0.00,VWS V14.00,2013-03-21 07:18:00,
2013-03-21 03:23:00,17.9,13.9,29.98,WSW,246,1.0,6.0,84,0.00,,---,0.00,VWS V14.00,2013-03-21 07:23:00,
2013-03-21 03:28:00,17.9,13.9,29.98,WSW,247,4.0,6.0,84,0.00,,---,0.00,VWS V14.00,2013-03-21 07:28:00,
2013-03-21 03:33:00,17.7,13.7,29.98,West,263,2.0,4.0,84,0.00,,---,0.00,VWS V14.00,2013-03-21 07:33:00,
2013-03-21 03:39:00,17.6,13.6,29.98,West,260,1.0,7.0,84,0.00,,---,0.00,VWS V14.00,2013-03-21 07:39:00,
2013-03-21 03:44:00,17.6,13.6,29.98,West,261,1.0,7.0,84,0.00,,---,0.00,VWS V14.00,2013-03-21 07:44:00,
2013-03-21 03:49:00,17.4,13.4,29.98,West,259,4.0,8.0,84,0.00,,---,0.00,VWS V14.00,2013-03-21 07:49:00,
2013-03-21 03:54:00,17.4,13.7,29.98,West,267,2.0,9.0,85,0.00,,---,0.00,VWS V14.00,2013-03-21 07:54:00,
2013-03-21 03:59:00,17.4,13.7,29.98,West,262,1.0,9.0,85,0.00,,---,0.00,VWS V14.00,2013-03-21 07:59:00,
2013-03-21 04:04:00,17.3,13.6,29.97,West,259,5.0,5.0,85,0.00,,---,0.00,VWS V14.00,2013-03-21 08:04:00,
2013-03-21 04:09:00,17.3,13.6,29.97,West,264,1.0,5.0,85,0.00,,---,0.00,VWS V14.00,2013-03-21 08:09:00,
2013-03-21 04:15:00,17.2,13.5,29.97,West,265,2.0,5.0,85,0.00,,---,0.00,VWS V14.00,2013-03-21 08:15:00,
2013-03-21 04:20:00,17.1,13.4,29.97,WSW,245,1.0,6.0,85,0.00,,---,0.00,VWS V14.00,2013-03-21 08:20:00,
2013-03-21 04:25:00,17.1,13.4,29.97,West,263,3.0,6.0,85,0.00,,---,0.00,VWS V14.00,2013-03-21 08:25:00,
2013-03-21 04:30:00,17.1,13.4,29.97,West,271,2.0,6.0,85,0.00,,---,0.00,VWS V14.00,2013-03-21 08:30:00,
2013-03-21 04:35:00,17.0,13.3,29.97,West,269,3.0,10.0,85,0.00,,---,0.00,VWS V14.00,2013-03-21 08:35:00,
2013-03-21 04:40:00,17.0,13.0,29.97,West,259,4.0,10.0,84,0.00,,---,0.00,VWS V14.00,2013-03-21 08:40:00,
2013-03-21 04:45:00,17.0,13.3,29.97,WSW,257,2.0,10.0,85,0.00,,---,0.00,VWS V14.00,2013-03-21 08:45:00,
2013-03-21 04:51:00,16.9,12.9,29.97,WSW,252,2.0,10.0,84,0.00,,---,0.00,VWS V14.00,2013-03-21 08:51:00,
2013-03-21 04:56:00,16.8,13.1,29.97,WSW,257,2.0,10.0,85,0.00,,---,0.00,VWS V14.00,2013-03-21 08:56:00,
2013-03-21 05:01:00,16.7,13.0,29.96,WSW,252,1.0,4.0,85,0.00,,---,0.00,VWS V14.00,2013-03-21 09:01:00,
2013-03-21 05:07:00,16.6,12.9,29.96,WSW,245,1.0,4.0,85,0.00,,---,0.00,VWS V14.00,2013-03-21 09:07:00,
2013-03-21 05:12:00,16.6,12.9,29.96,WSW,254,1.0,7.0,85,0.00,,---,0.00,VWS V14.00,2013-03-21 09:12:00,
2013-03-21 05:17:00,16.6,12.9,29.97,West,263,2.0,7.0,85,0.00,,---,0.00,VWS V14.00,2013-03-21 09:17:00,
2013-03-21 05:22:00,16.6,12.9,29.96,WSW,257,4.0,7.0,85,0.00,,---,0.00,VWS V14.00,2013-03-21 09:22:00,
2013-03-21 05:27:00,16.6,12.9,29.97,WSW,250,0.0,7.0,85,0.00,,---,0.00,VWS V14.00,2013-03-21 09:27:00,
2013-03-21 05:32:00,16.7,13.0,29.96,WSW,252,0.0,5.0,85,0.00,,---,0.00,VWS V14.00,2013-03-21 09:32:00,
2013-03-21 05:37:00,16.7,13.0,29.96,WSW,252,2.0,5.0,85,0.00,,---,0.00,VWS V14.00,2013-03-21 09:37:00,
2013-03-21 05:42:00,16.7,13.2,29.96,WSW,245,5.0,5.0,86,0.00,,---,0.00,VWS V14.00,2013-03-21 09:42:00,
2013-03-21 05:47:00,16.7,13.2,29.96,WSW,255,4.0,6.0,86,0.00,,---,0.00,VWS V14.00,2013-03-21 09:47:00,
2013-03-21 05:52:00,16.7,13.2,29.96,WSW,247,2.0,6.0,86,0.00,,---,0.00,VWS V14.00,2013-03-21 09:52:00,
2013-03-21 05:57:00,16.6,13.1,29.96,WSW,256,1.0,6.0,86,0.00,,---,0.00,VWS V14.00,2013-03-21 09:57:00,
2013-03-21 06:02:00,16.6,13.1,29.96,West,269,2.0,5.0,86,0.00,,---,0.00,VWS V14.00,2013-03-21 10:02:00,
2013-03-21 06:07:00,16.6,13.1,29.96,West,271,5.0,5.0,86,0.00,,---,0.00,VWS V14.00,2013-03-21 10:07:00,
2013-03-21 06:12:00,16.6,13.1,29.96,WSW,257,1.0,7.0,86,0.00,,---,0.00,VWS V14.00,2013-03-21 10:12:00,
2013-03-21 06:18:00,16.7,13.2,29.96,WSW,254,3.0,7.0,86,0.00,,---,0.00,VWS V14.00,2013-03-21 10:18:00,
2013-03-21 06:23:00,16.7,13.2,29.96,West,261,2.0,7.0,86,0.00,,---,0.00,VWS V14.00,2013-03-21 10:23:00,
2013-03-21 06:28:00,16.7,13.2,29.96,WSW,257,2.0,7.0,86,0.00,,---,0.00,VWS V14.00,2013-03-21 10:28:00,
2013-03-21 06:33:00,16.6,13.1,29.96,WSW,254,1.0,5.0,86,0.00,,---,0.00,VWS V14.00,2013-03-21 10:33:00,
2013-03-21 06:38:00,16.6,13.1,29.96,West,271,1.0,6.0,86,0.00,,---,0.00,VWS V14.00,2013-03-21 10:38:00,
2013-03-21 06:43:00,16.7,13.2,29.96,WSW,253,3.0,6.0,86,0.00,,---,0.00,VWS V14.00,2013-03-21 10:43:00,
2013-03-21 06:49:00,16.6,13.1,29.96,West,262,3.0,8.0,86,0.00,,---,0.00,VWS V14.00,2013-03-21 10:49:00,
2013-03-21 06:54:00,16.6,13.1,29.96,WNW,282,4.0,8.0,86,0.00,,---,0.00,VWS V14.00,2013-03-21 10:54:00,
2013-03-21 06:59:00,16.7,13.2,29.97,WSW,253,3.0,8.0,86,0.00,,---,0.00,VWS V14.00,2013-03-21 10:59:00,
2013-03-21 07:04:00,16.7,13.5,29.97,WSW,247,0.0,7.0,87,0.00,,---,0.00,VWS V14.00,2013-03-21 11:04:00,
2013-03-21 07:09:00,16.8,13.6,29.97,WSW,246,2.0,7.0,87,0.00,,---,0.00,VWS V14.00,2013-03-21 11:09:00,
2013-03-21 07:15:00,16.8,13.6,29.97,WNW,286,4.0,7.0,87,0.00,,---,0.00,VWS V14.00,2013-03-21 11:15:00,
2013-03-21 07:20:00,16.8,13.6,29.97,West,275,1.0,8.0,87,0.00,,---,0.00,VWS V14.00,2013-03-21 11:20:00,
2013-03-21 07:25:00,16.9,13.7,29.98,WSW,252,5.0,8.0,87,0.00,,---,0.00,VWS V14.00,2013-03-21 11:25:00,
2013-03-21 07:30:00,16.9,13.4,29.98,West,261,4.0,6.0,86,0.00,,---,0.00,VWS V14.00,2013-03-21 11:30:00,
2013-03-21 07:35:00,16.8,13.4,29.97,WSW,254,3.0,8.0,86,0.00,,---,0.00,VWS V14.00,2013-03-21 11:35:00,
2013-03-21 07:40:00,16.8,13.4,29.98,WSW,257,4.0,8.0,86,0.00,,---,0.00,VWS V14.00,2013-03-21 11:40:00,
2013-03-21 07:45:00,16.7,13.2,29.97,West,265,4.0,8.0,86,0.00,,---,0.00,VWS V14.00,2013-03-21 11:45:00,
2013-03-21 07:51:00,16.7,13.2,29.97,West,267,2.0,8.0,86,0.00,,---,0.00,VWS V14.00,2013-03-21 11:51:00,
2013-03-21 07:56:00,16.7,13.2,29.97,West,260,2.0,8.0,86,0.00,,---,0.00,VWS V14.00,2013-03-21 11:56:00,
2013-03-21 08:01:00,16.8,13.6,29.97,WSW,258,4.0,5.0,87,0.00,,---,0.00,VWS V14.00,2013-03-21 12:01:00,
2013-03-21 08:07:00,16.9,13.7,29.97,West,261,1.0,7.0,87,0.00,,---,0.00,VWS V14.00,2013-03-21 12:07:00,
2013-03-21 08:12:00,17.0,13.8,29.97,WSW,254,0.0,7.0,87,0.00,,---,0.00,VWS V14.00,2013-03-21 12:12:00,
2013-03-21 08:17:00,17.1,13.9,29.98,West,260,5.0,8.0,87,0.00,,---,0.00,VWS V14.00,2013-03-21 12:17:00,
2013-03-21 08:22:00,17.3,14.1,29.98,West,261,1.0,8.0,87,0.00,,---,0.00,VWS V14.00,2013-03-21 12:22:00,
2013-03-21 08:27:00,17.5,14.3,29.98,West,262,3.0,8.0,87,0.00,,---,0.00,VWS V14.00,2013-03-21 12:27:00,
2013-03-21 08:33:00,17.7,14.5,29.97,WSW,255,3.0,6.0,87,0.00,,---,0.00,VWS V14.00,2013-03-21 12:33:00,
2013-03-21 08:38:00,18.0,14.8,29.98,West,275,4.0,6.0,87,0.00,,---,0.00,VWS V14.00,2013-03-21 12:38:00,
2013-03-21 08:43:00,18.0,14.8,29.98,West,279,2.0,6.0,87,0.00,,---,0.00,VWS V14.00,2013-03-21 12:43:00,
2013-03-21 08:48:00,18.1,14.9,29.98,WSW,257,5.0,8.0,87,0.00,,---,0.00,VWS V14.00,2013-03-21 12:48:00,
2013-03-21 08:54:00,18.2,15.0,29.98,West,281,5.0,10.0,87,0.00,,---,0.00,VWS V14.00,2013-03-21 12:54:00,
2013-03-21 08:59:00,18.3,15.1,29.98,WSW,249,3.0,11.0,87,0.00,,---,0.00,VWS V14.00,2013-03-21 12:59:00,
2013-03-21 09:04:00,18.5,15.3,29.98,West,264,2.0,7.0,87,0.00,,---,0.00,VWS V14.00,2013-03-21 13:04:00,
2013-03-21 09:09:00,18.7,15.7,29.98,West,267,2.0,7.0,88,0.00,,---,0.00,VWS V14.00,2013-03-21 13:09:00,
2013-03-21 09:14:00,18.8,15.6,29.98,WSW,256,5.0,12.0,87,0.00,,---,0.00,VWS V14.00,2013-03-21 13:14:00,
2013-03-21 09:20:00,19.0,15.8,29.98,NW,311,8.0,12.0,87,0.00,,---,0.00,VWS V14.00,2013-03-21 13:20:00,
2013-03-21 09:25:00,19.3,16.1,29.98,West,272,7.0,12.0,87,0.00,,---,0.00,VWS V14.00,2013-03-21 13:25:00,
2013-03-21 09:30:00,19.4,15.9,29.98,West,271,5.0,6.0,86,0.00,,---,0.00,VWS V14.00,2013-03-21 13:30:00,
2013-03-21 09:35:00,19.7,16.2,29.98,West,268,7.0,14.0,86,0.00,,---,0.00,VWS V14.00,2013-03-21 13:35:00,
2013-03-21 09:40:00,20.0,16.5,29.98,West,275,12.0,14.0,86,0.00,,---,0.00,VWS V14.00,2013-03-21 13:40:00,
2013-03-21 09:45:00,20.2,16.4,29.98,WNW,283,5.0,14.0,85,0.00,,---,0.00,VWS V14.00,2013-03-21 13:45:00,
2013-03-21 09:51:00,20.6,16.8,29.98,West,267,4.0,14.0,85,0.00,,---,0.00,VWS V14.00,2013-03-21 13:51:00,
2013-03-21 09:57:00,20.9,17.1,29.98,WSW,254,5.0,14.0,85,0.00,,---,0.00,VWS V14.00,2013-03-21 13:57:00,
2013-03-21 10:02:00,21.3,17.5,29.99,WSW,247,10.0,10.0,85,0.00,,---,0.00,VWS V14.00,2013-03-21 14:02:00,
2013-03-21 10:07:00,21.5,17.7,29.98,West,260,3.0,10.0,85,0.00,,---,0.00,VWS V14.00,2013-03-21 14:07:00,
2013-03-21 10:12:00,21.7,17.6,29.99,West,265,5.0,11.0,84,0.00,,---,0.00,VWS V14.00,2013-03-21 14:12:00,
2013-03-21 10:17:00,21.8,17.7,29.98,WSW,257,3.0,11.0,84,0.00,,---,0.00,VWS V14.00,2013-03-21 14:17:00,
2013-03-21 10:22:00,22.1,18.0,29.98,WNW,298,2.0,11.0,84,0.00,,---,0.00,VWS V14.00,2013-03-21 14:22:00,
2013-03-21 10:28:00,22.2,17.8,29.98,West,263,3.0,11.0,83,0.00,,---,0.00,VWS V14.00,2013-03-21 14:28:00,
2013-03-21 10:33:00,22.5,18.4,29.99,WNW,284,5.0,7.0,84,0.00,,---,0.00,VWS V14.00,2013-03-21 14:33:00,
2013-03-21 10:38:00,22.7,18.3,29.99,WNW,294,2.0,11.0,83,0.00,,---,0.00,VWS V14.00,2013-03-21 14:38:00,
2013-03-21 10:43:00,23.0,18.6,29.99,WSW,258,5.0,11.0,83,0.00,,---,0.00,VWS V14.00,2013-03-21 14:43:00,
2013-03-21 10:49:00,23.2,18.8,29.99,West,269,2.0,11.0,83,0.00,,---,0.00,VWS V14.00,2013-03-21 14:49:00,
2013-03-21 10:54:00,23.6,19.5,29.99,WNW,297,5.0,11.0,84,0.00,,---,0.00,VWS V14.00,2013-03-21 14:54:00,
2013-03-21 10:59:00,23.7,19.0,29.99,NW,305,5.0,12.0,82,0.00,,---,0.00,VWS V14.00,2013-03-21 14:59:00,
2013-03-21 11:04:00,23.8,19.1,29.99,West,274,4.0,8.0,82,0.00,,---,0.00,VWS V14.00,2013-03-21 15:04:00,
2013-03-21 11:09:00,23.7,19.0,29.99,West,276,2.0,8.0,82,0.00,,---,0.00,VWS V14.00,2013-03-21 15:09:00,
2013-03-21 11:14:00,24.3,20.2,29.99,WNW,298,5.0,8.0,84,0.00,,---,0.00,VWS V14.00,2013-03-21 15:14:00,
2013-03-21 11:20:00,24.4,20.0,29.99,WNW,294,5.0,11.0,83,0.00,,---,0.00,VWS V14.00,2013-03-21 15:20:00,
2013-03-21 11:25:00,24.3,19.6,29.99,WNW,296,7.0,11.0,82,0.00,,---,0.00,VWS V14.00,2013-03-21 15:25:00,
2013-03-21 11:30:00,24.6,19.9,29.99,WSW,257,4.0,6.0,82,0.00,,---,0.00,VWS V14.00,2013-03-21 15:30:00,
2013-03-21 11:35:00,24.9,19.9,29.99,West,274,6.0,12.0,81,0.00,,---,0.00,VWS V14.00,2013-03-21 15:35:00,
2013-03-21 11:40:00,25.2,19.9,29.99,WSW,257,8.0,12.0,80,0.00,,---,0.00,VWS V14.00,2013-03-21 15:40:00,
2013-03-21 11:45:00,25.4,20.1,29.99,West,263,6.0,12.0,80,0.00,,---,0.00,VWS V14.00,2013-03-21 15:45:00,
2013-03-21 11:51:00,25.8,21.1,29.99,WNW,284,4.0,14.0,82,0.00,,---,0.00,VWS V14.00,2013-03-21 15:51:00,
2013-03-21 11:56:00,25.7,20.4,30.00,WNW,300,4.0,14.0,80,0.00,,---,0.00,VWS V14.00,2013-03-21 15:56:00,
2013-03-21 12:01:00,25.8,20.2,30.00,West,262,5.0,8.0,79,0.00,,---,0.00,VWS V14.00,2013-03-21 16:01:00,
2013-03-21 12:06:00,26.1,20.5,30.00,West,277,4.0,9.0,79,0.00,,---,0.00,VWS V14.00,2013-03-21 16:06:00,
2013-03-21 12:12:00,26.9,21.6,29.99,West,267,6.0,10.0,80,0.00,,---,0.00,VWS V14.00,2013-03-21 16:12:00,
2013-03-21 12:17:00,27.0,21.4,30.00,West,276,4.0,11.0,79,0.00,,---,0.00,VWS V14.00,2013-03-21 16:17:00,
2013-03-21 12:22:00,26.8,20.6,30.00,West,262,8.0,12.0,77,0.00,,---,0.00,VWS V14.00,2013-03-21 16:22:00,
2013-03-21 12:27:00,26.9,20.7,30.00,NW,315,2.0,12.0,77,0.00,,---,0.00,VWS V14.00,2013-03-21 16:27:00,
2013-03-21 12:33:00,27.1,20.5,30.00,WNW,285,7.0,9.0,76,0.00,,---,0.00,VWS V14.00,2013-03-21 16:33:00,
2013-03-21 12:38:00,27.3,21.1,30.00,WNW,299,4.0,9.0,77,0.00,,---,0.00,VWS V14.00,2013-03-21 16:38:00,
2013-03-21 12:43:00,28.1,21.5,30.00,WNW,295,7.0,11.0,76,0.00,,---,0.00,VWS V14.00,2013-03-21 16:43:00,
2013-03-21 12:48:00,28.1,20.6,30.00,WNW,301,7.0,11.0,73,0.00,,---,0.00,VWS V14.00,2013-03-21 16:48:00,
2013-03-21 12:54:00,27.9,21.0,30.00,WNW,294,6.0,11.0,75,0.00,,---,0.00,VWS V14.00,2013-03-21 16:54:00,
2013-03-21 12:59:00,27.6,21.4,30.00,WNW,289,6.0,14.0,77,0.00,,---,0.00,VWS V14.00,2013-03-21 16:59:00,
2013-03-21 13:04:00,26.8,21.5,30.00,WNW,302,4.0,8.0,80,0.00,,---,0.00,VWS V14.00,2013-03-21 17:04:00,
2013-03-21 13:09:00,26.9,21.6,30.00,WNW,283,6.0,13.0,80,0.00,,---,0.00,VWS V14.00,2013-03-21 17:09:00,
2013-03-21 13:14:00,27.4,21.5,30.00,West,269,4.0,13.0,78,0.00,,---,0.00,VWS V14.00,2013-03-21 17:14:00,
2013-03-21 13:20:00,27.7,21.1,30.00,NW,304,5.0,13.0,76,0.00,,---,0.00,VWS V14.00,2013-03-21 17:20:00,
2013-03-21 13:25:00,28.2,21.6,30.00,WNW,291,6.0,13.0,76,0.00,,---,0.00,VWS V14.00,2013-03-21 17:25:00,
2013-03-21 13:30:00,28.7,21.5,30.00,WNW,290,5.0,8.0,74,0.00,,---,0.00,VWS V14.00,2013-03-21 17:30:00,
2013-03-21 13:35:00,28.7,20.8,30.00,WNW,290,5.0,13.0,72,0.00,,---,0.00,VWS V14.00,2013-03-21 17:35:00,
2013-03-21 13:40:00,29.0,20.8,30.00,NW,314,5.0,13.0,71,0.00,,---,0.00,VWS V14.00,2013-03-21 17:40:00,
2013-03-21 13:46:00,29.4,20.8,29.99,West,263,4.0,13.0,70,0.00,,---,0.00,VWS V14.00,2013-03-21 17:46:00,
2013-03-21 13:52:00,29.7,21.1,29.99,WNW,302,6.0,13.0,70,0.00,,---,0.00,VWS V14.00,2013-03-21 17:52:00,
2013-03-21 13:57:00,29.9,21.0,30.00,West,277,5.0,13.0,69,0.00,,---,0.00,VWS V14.00,2013-03-21 17:57:00,
2013-03-21 14:02:00,29.5,20.3,29.99,WNW,288,6.0,13.0,68,0.00,,---,0.00,VWS V14.00,2013-03-21 18:02:00,
2013-03-21 14:07:00,29.4,20.5,29.99,NW,322,5.0,13.0,69,0.00,,---,0.00,VWS V14.00,2013-03-21 18:07:00,
2013-03-21 14:13:00,29.6,20.4,29.99,NW,314,2.0,13.0,68,0.00,,---,0.00,VWS V14.00,2013-03-21 18:13:00,
2013-03-21 14:18:00,29.9,20.6,29.99,West,276,6.0,15.0,68,0.00,,---,0.00,VWS V14.00,2013-03-21 18:18:00,
2013-03-21 14:23:00,30.5,20.5,29.99,West,266,7.0,15.0,66,0.00,,---,0.00,VWS V14.00,2013-03-21 18:23:00,
2013-03-21 14:28:00,30.6,20.6,29.99,West,264,5.0,15.0,66,0.00,,---,0.00,VWS V14.00,2013-03-21 18:28:00,
2013-03-21 14:33:00,30.3,20.3,29.99,WNW,289,9.0,9.0,66,0.00,,---,0.00,VWS V14.00,2013-03-21 18:33:00,
2013-03-21 14:38:00,30.2,20.2,29.99,WNW,283,9.0,12.0,66,0.00,,---,0.00,VWS V14.00,2013-03-21 18:38:00,
2013-03-21 14:43:00,29.7,19.8,29.99,West,281,5.0,14.0,66,0.00,,---,0.00,VWS V14.00,2013-03-21 18:43:00,
2013-03-21 14:48:00,30.0,20.0,29.99,WNW,298,5.0,14.0,66,0.00,,---,0.00,VWS V14.00,2013-03-21 18:48:00,
2013-03-21 14:54:00,29.9,19.6,29.99,NW,307,2.0,14.0,65,0.00,,---,0.00,VWS V14.00,2013-03-21 18:54:00,
2013-03-21 14:59:00,29.9,19.2,29.98,NNW,335,8.0,14.0,64,0.00,,---,0.00,VWS V14.00,2013-03-21 18:59:00,
2013-03-21 15:05:00,29.6,19.6,29.99,NW,306,7.0,11.0,66,0.00,,---,0.00,VWS V14.00,2013-03-21 19:05:00,
2013-03-21 15:10:00,29.7,19.8,29.98,West,259,6.0,11.0,66,0.00,,---,0.00,VWS V14.00,2013-03-21 19:10:00,
2013-03-21 15:15:00,29.7,19.8,29.98,West,259,11.0,14.0,66,0.00,,---,0.00,VWS V14.00,2013-03-21 19:15:00,
2013-03-21 15:20:00,29.3,20.1,29.98,WNW,284,6.0,19.0,68,0.00,,---,0.00,VWS V14.00,2013-03-21 19:20:00,
2013-03-21 15:25:00,29.9,20.3,29.98,WNW,300,6.0,19.0,67,0.00,,---,0.00,VWS V14.00,2013-03-21 19:25:00,
2013-03-21 15:30:00,29.7,20.1,29.98,WSW,257,11.0,13.0,67,0.00,,---,0.00,VWS V14.00,2013-03-21 19:30:00,
2013-03-21 15:35:00,29.4,20.2,29.98,WNW,302,4.0,13.0,68,0.00,,---,0.00,VWS V14.00,2013-03-21 19:35:00,
2013-03-21 15:41:00,29.7,20.1,29.98,NW,309,6.0,13.0,67,0.00,,---,0.00,VWS V14.00,2013-03-21 19:41:00,
2013-03-21 15:46:00,29.9,19.6,29.98,NW,316,7.0,13.0,65,0.00,,---,0.00,VWS V14.00,2013-03-21 19:46:00,
2013-03-21 15:52:00,30.0,19.3,29.98,NNW,332,7.0,13.0,64,0.00,,---,0.00,VWS V14.00,2013-03-21 19:52:00,
2013-03-21 15:57:00,30.2,19.5,29.98,WNW,299,2.0,13.0,64,0.00,,---,0.00,VWS V14.00,2013-03-21 19:57:00,
2013-03-21 16:02:00,30.2,19.5,29.99,NW,311,9.0,11.0,64,0.00,,---,0.00,VWS V14.00,2013-03-21 20:02:00,
2013-03-21 16:07:00,30.3,20.7,29.98,WNW,292,2.0,12.0,67,0.00,,---,0.00,VWS V14.00,2013-03-21 20:07:00,
2013-03-21 16:12:00,30.6,19.9,29.98,NW,318,5.0,12.0,64,0.00,,---,0.00,VWS V14.00,2013-03-21 20:12:00,
2013-03-21 16:17:00,30.8,19.7,29.98,NW,317,4.0,13.0,63,0.00,,---,0.00,VWS V14.00,2013-03-21 20:17:00,
2013-03-21 16:23:00,31.3,20.2,29.98,WNW,288,6.0,13.0,63,0.00,,---,0.00,VWS V14.00,2013-03-21 20:23:00,
2013-03-21 16:28:00,32.1,20.9,29.98,NW,315,7.0,13.0,63,0.00,,---,0.00,VWS V14.00,2013-03-21 20:28:00,
2013-03-21 16:33:00,32.1,19.8,29.98,WNW,302,6.0,13.0,60,0.00,,---,0.00,VWS V14.00,2013-03-21 20:33:00,
2013-03-21 16:38:00,31.5,19.6,29.98,WNW,284,4.0,13.0,61,0.00,,---,0.00,VWS V14.00,2013-03-21 20:38:00,
2013-03-21 16:44:00,31.2,19.7,29.98,WNW,301,7.0,13.0,62,0.00,,---,0.00,VWS V14.00,2013-03-21 20:44:00,
2013-03-21 16:49:00,31.1,19.2,29.98,WNW,296,4.0,13.0,61,0.00,,---,0.00,VWS V14.00,2013-03-21 20:49:00,
2013-03-21 16:54:00,31.8,20.7,29.98,West,278,4.0,13.0,63,0.00,,---,0.00,VWS V14.00,2013-03-21 20:54:00,
2013-03-21 16:59:00,32.1,20.2,29.98,SW,236,4.0,13.0,61,0.00,,---,0.00,VWS V14.00,2013-03-21 20:59:00,
2013-03-21 17:05:00,31.7,19.4,29.98,WNW,298,4.0,11.0,60,0.00,,---,0.00,VWS V14.00,2013-03-21 21:05:00,
2013-03-21 17:10:00,31.3,19.4,29.98,West,275,5.0,11.0,61,0.00,,---,0.00,VWS V14.00,2013-03-21 21:10:00,
2013-03-21 17:15:00,31.4,19.5,29.99,West,263,4.0,11.0,61,0.00,,---,0.00,VWS V14.00,2013-03-21 21:15:00,
2013-03-21 17:20:00,31.1,19.2,29.99,WNW,303,5.0,11.0,61,0.00,,---,0.00,VWS V14.00,2013-03-21 21:20:00,
2013-03-21 17:25:00,30.6,18.8,29.99,WNW,284,2.0,12.0,61,0.00,,---,0.00,VWS V14.00,2013-03-21 21:25:00,
2013-03-21 17:30:00,30.5,19.0,29.99,WNW,287,2.0,8.0,62,0.00,,---,0.00,VWS V14.00,2013-03-21 21:30:00,
2013-03-21 17:36:00,30.4,19.0,29.99,WNW,297,4.0,8.0,62,0.00,,---,0.00,VWS V14.00,2013-03-21 21:36:00,
2013-03-21 17:41:00,30.6,19.5,29.99,WNW,294,5.0,9.0,63,0.00,,---,0.00,VWS V14.00,2013-03-21 21:41:00,
2013-03-21 17:47:00,30.7,19.2,29.99,WNW,291,7.0,11.0,62,0.00,,---,0.00,VWS V14.00,2013-03-21 21:47:00,
2013-03-21 17:52:00,30.6,18.8,29.99,WNW,294,8.0,11.0,61,0.00,,---,0.00,VWS V14.00,2013-03-21 21:52:00,
2013-03-21 17:57:00,30.5,18.7,29.99,WNW,294,4.0,11.0,61,0.00,,---,0.00,VWS V14.00,2013-03-21 21:57:00,
2013-03-21 18:02:00,30.4,19.0,29.99,WNW,298,4.0,9.0,62,0.00,,---,0.00,VWS V14.00,2013-03-21 22:02:00,
2013-03-21 18:08:00,30.1,19.0,29.99,WNW,292,7.0,9.0,63,0.00,,---,0.00,VWS V14.00,2013-03-21 22:08:00,
2013-03-21 18:13:00,29.9,19.2,29.99,WNW,284,4.0,11.0,64,0.00,,---,0.00,VWS V14.00,2013-03-21 22:13:00,
2013-03-21 18:18:00,29.9,19.2,29.99,WNW,296,4.0,11.0,64,0.00,,---,0.00,VWS V14.00,2013-03-21 22:18:00,
2013-03-21 18:23:00,29.9,19.6,29.99,WNW,295,4.0,11.0,65,0.00,,---,0.00,VWS V14.00,2013-03-21 22:23:00,
2013-03-21 18:29:00,29.9,19.2,29.99,WNW,302,4.0,11.0,64,0.00,,---,0.00,VWS V14.00,2013-03-21 22:29:00,
2013-03-21 18:34:00,29.8,19.1,29.99,WNW,288,4.0,7.0,64,0.00,,---,0.00,VWS V14.00,2013-03-21 22:34:00,
2013-03-21 18:39:00,29.9,18.9,29.99,NW,309,4.0,9.0,63,0.00,,---,0.00,VWS V14.00,2013-03-21 22:39:00,
2013-03-21 18:44:00,30.2,18.4,29.99,West,281,5.0,11.0,61,0.00,,---,0.00,VWS V14.00,2013-03-21 22:44:00,
2013-03-21 18:49:00,30.0,18.2,29.99,West,277,4.0,12.0,61,0.00,,---,0.00,VWS V14.00,2013-03-21 22:49:00,
2013-03-21 18:54:00,29.7,17.9,29.99,WNW,289,5.0,12.0,61,0.00,,---,0.00,VWS V14.00,2013-03-21 22:54:00,
2013-03-21 18:59:00,29.4,17.6,29.99,WNW,289,2.0,12.0,61,0.00,,---,0.00,VWS V14.00,2013-03-21 22:59:00,
2013-03-21 19:05:00,29.1,17.3,29.99,NW,304,6.0,9.0,61,0.00,,---,0.00,VWS V14.00,2013-03-21 23:05:00,
2013-03-21 19:10:00,28.9,17.5,29.99,West,269,5.0,9.0,62,0.00,,---,0.00,VWS V14.00,2013-03-21 23:10:00,
2013-03-21 19:15:00,28.9,17.5,29.99,West,276,7.0,9.0,62,0.00,,---,0.00,VWS V14.00,2013-03-21 23:15:00,
2013-03-21 19:20:00,28.9,17.5,29.99,WNW,292,5.0,12.0,62,0.00,,---,0.00,VWS V14.00,2013-03-21 23:20:00,
2013-03-21 19:25:00,28.8,17.8,29.99,WNW,291,4.0,12.0,63,0.00,,---,0.00,VWS V14.00,2013-03-21 23:25:00,
2013-03-21 19:30:00,28.6,17.6,30.00,WNW,302,5.0,6.0,63,0.00,,---,0.00,VWS V14.00,2013-03-21 23:30:00,
2013-03-21 19:35:00,28.5,17.9,30.00,WNW,294,6.0,7.0,64,0.00,,---,0.00,VWS V14.00,2013-03-21 23:35:00,
2013-03-21 19:41:00,28.4,18.1,30.00,WNW,302,6.0,11.0,65,0.00,,---,0.00,VWS V14.00,2013-03-21 23:41:00,
2013-03-21 19:46:00,28.1,17.9,30.00,WNW,294,5.0,11.0,65,0.00,,---,0.00,VWS V14.00,2013-03-21 23:46:00,
2013-03-21 19:52:00,27.9,18.0,30.00,WNW,301,1.0,11.0,66,0.00,,---,0.00,VWS V14.00,2013-03-21 23:52:00,
2013-03-21 19:57:00,27.7,17.8,30.00,WNW,300,2.0,11.0,66,0.00,,---,0.00,VWS V14.00,2013-03-21 23:57:00,
2013-03-21 20:02:00,27.5,18.0,30.01,WNW,301,1.0,6.0,67,0.00,,---,0.00,VWS V14.00,2013-03-22 00:02:00,
2013-03-21 20:07:00,27.4,18.2,30.01,WNW,300,2.0,6.0,68,0.00,,---,0.00,VWS V14.00,2013-03-22 00:07:00,
2013-03-21 20:12:00,27.2,18.4,30.01,WNW,301,2.0,6.0,69,0.00,,---,0.00,VWS V14.00,2013-03-22 00:12:00,
2013-03-21 20:18:00,27.0,18.2,30.01,NW,316,2.0,6.0,69,0.00,,---,0.00,VWS V14.00,2013-03-22 00:18:00,
2013-03-21 20:23:00,26.8,18.0,30.01,NW,316,2.0,6.0,69,0.00,,---,0.00,VWS V14.00,2013-03-22 00:23:00,
2013-03-21 20:28:00,26.7,17.9,30.01,WNW,298,2.0,6.0,69,0.00,,---,0.00,VWS V14.00,2013-03-22 00:28:00,
2013-03-21 20:33:00,26.5,18.0,30.01,WNW,301,4.0,5.0,70,0.00,,---,0.00,VWS V14.00,2013-03-22 00:33:00,
2013-03-21 20:38:00,26.5,17.7,30.01,NNW,328,1.0,5.0,69,0.00,,---,0.00,VWS V14.00,2013-03-22 00:38:00,
2013-03-21 20:43:00,26.4,18.0,30.01,WNW,298,4.0,5.0,70,0.00,,---,0.00,VWS V14.00,2013-03-22 00:43:00,
2013-03-21 20:49:00,26.3,17.9,30.01,WNW,298,0.0,5.0,70,0.00,,---,0.00,VWS V14.00,2013-03-22 00:49:00,
2013-03-21 20:54:00,26.1,18.0,30.01,WNW,296,0.0,5.0,71,0.00,,---,0.00,VWS V14.00,2013-03-22 00:54:00,
2013-03-21 20:59:00,26.0,17.9,30.01,WNW,297,0.0,5.0,71,0.00,,---,0.00,VWS V14.00,2013-03-22 00:59:00,
2013-03-21 21:04:00,25.9,18.1,30.01,WNW,296,0.0,1.0,72,0.00,,---,0.00,VWS V14.00,2013-03-22 01:04:00,
2013-03-21 21:09:00,25.8,18.0,30.01,WNW,297,0.0,2.0,72,0.00,,---,0.00,VWS V14.00,2013-03-22 01:09:00,
2013-03-21 21:15:00,25.8,18.0,30.01,WNW,297,0.0,2.0,72,0.00,,---,0.00,VWS V14.00,2013-03-22 01:15:00,
2013-03-21 21:20:00,25.6,17.8,30.01,WNW,296,0.0,2.0,72,0.00,,---,0.00,VWS V14.00,2013-03-22 01:20:00,
2013-03-21 21:25:00,25.4,18.0,30.01,WNW,297,0.0,2.0,73,0.00,,---,0.00,VWS V14.00,2013-03-22 01:25:00,
2013-03-21 21:30:00,25.2,17.8,30.01,WNW,297,1.0,2.0,73,0.00,,---,0.00,VWS V14.00,2013-03-22 01:30:00,
2013-03-21 21:35:00,25.3,18.2,30.01,WNW,300,2.0,4.0,74,0.00,,---,0.00,VWS V14.00,2013-03-22 01:35:00,
2013-03-21 21:40:00,25.3,17.9,30.01,WNW,297,0.0,4.0,73,0.00,,---,0.00,VWS V14.00,2013-03-22 01:40:00,
2013-03-21 21:46:00,25.3,17.9,30.02,WNW,288,2.0,4.0,73,0.00,,---,0.00,VWS V14.00,2013-03-22 01:46:00,
2013-03-21 21:51:00,25.2,17.8,30.01,WSW,255,1.0,5.0,73,0.00,,---,0.00,VWS V14.00,2013-03-22 01:51:00,
2013-03-21 21:56:00,25.1,18.0,30.02,WNW,292,2.0,5.0,74,0.00,,---,0.00,VWS V14.00,2013-03-22 01:56:00,
2013-03-21 22:01:00,24.9,17.8,30.02,WNW,296,1.0,4.0,74,0.00,,---,0.00,VWS V14.00,2013-03-22 02:01:00,
2013-03-21 22:06:00,24.8,17.7,30.02,WNW,296,0.0,4.0,74,0.00,,---,0.00,VWS V14.00,2013-03-22 02:06:00,
2013-03-21 22:12:00,24.7,17.6,30.02,WNW,296,1.0,4.0,74,0.00,,---,0.00,VWS V14.00,2013-03-22 02:12:00,
2013-03-21 22:17:00,24.6,17.5,30.02,WNW,296,1.0,5.0,74,0.00,,---,0.00,VWS V14.00,2013-03-22 02:17:00,
2013-03-21 22:22:00,24.4,17.3,30.02,WNW,296,1.0,5.0,74,0.00,,---,0.00,VWS V14.00,2013-03-22 02:22:00,
2013-03-21 22:27:00,24.4,17.6,30.02,WNW,296,1.0,5.0,75,0.00,,---,0.00,VWS V14.00,2013-03-22 02:27:00,
2013-03-21 22:33:00,24.3,17.5,30.02,WNW,296,1.0,2.0,75,0.00,,---,0.00,VWS V14.00,2013-03-22 02:33:00,
2013-03-21 22:38:00,24.2,17.4,30.02,WNW,296,0.0,4.0,75,0.00,,---,0.00,VWS V14.00,2013-03-22 02:38:00,
2013-03-21 22:43:00,24.0,17.2,30.02,WNW,296,0.0,4.0,75,0.00,,---,0.00,VWS V14.00,2013-03-22 02:43:00,
2013-03-21 22:48:00,23.9,17.5,30.02,WNW,282,1.0,4.0,76,0.00,,---,0.00,VWS V14.00,2013-03-22 02:48:00,
2013-03-21 22:54:00,23.8,17.4,30.02,West,274,0.0,4.0,76,0.00,,---,0.00,VWS V14.00,2013-03-22 02:54:00,
2013-03-21 22:59:00,23.8,17.4,30.02,West,275,0.0,4.0,76,0.00,,---,0.00,VWS V14.00,2013-03-22 02:59:00,
2013-03-21 23:04:00,23.8,17.4,30.02,West,274,1.0,2.0,76,0.00,,---,0.00,VWS V14.00,2013-03-22 03:04:00,
2013-03-21 23:09:00,23.7,17.3,30.02,West,275,0.0,2.0,76,0.00,,---,0.00,VWS V14.00,2013-03-22 03:09:00,
2013-03-21 23:14:00,23.5,17.4,30.03,West,275,0.0,2.0,77,0.00,,---,0.00,VWS V14.00,2013-03-22 03:14:00,
2013-03-21 23:20:00,23.4,17.3,30.02,West,275,0.0,2.0,77,0.00,,---,0.00,VWS V14.00,2013-03-22 03:20:00,
2013-03-21 23:25:00,23.3,17.2,30.03,West,275,1.0,2.0,77,0.00,,---,0.00,VWS V14.00,2013-03-22 03:25:00,
2013-03-21 23:30:00,23.3,17.2,30.03,West,275,0.0,2.0,77,0.00,,---,0.00,VWS V14.00,2013-03-22 03:30:00,
2013-03-21 23:35:00,23.1,17.0,30.03,West,275,0.0,1.0,77,0.00,,---,0.00,VWS V14.00,2013-03-22 03:35:00,
2013-03-21 23:40:00,23.1,17.3,30.03,West,274,1.0,4.0,78,0.00,,---,0.00,VWS V14.00,2013-03-22 03:40:00,
2013-03-21 23:45:00,23.0,17.2,30.03,West,274,1.0,4.0,78,0.00,,---,0.00,VWS V14.00,2013-03-22 03:45:00,
2013-03-21 23:51:00,23.0,17.2,30.03,West,267,2.0,4.0,78,0.00,,---,0.00,VWS V14.00,2013-03-22 03:51:00,
2013-03-21 23:57:00,23.0,17.2,30.03,WNW,297,2.0,5.0,78,0.00,,---,0.00,VWS V14.00,2013-03-22 03:57:00,